Date String (YYYY-MM-DD hh:mm:ss) UTC,Instrument flags,absolute air pressure of the measurement (hPa),sample flow rate (lpm),inlet stack bypass flow (lpm),air temperature of the measurement (°C),ambient temperature measured by the external sensor (°C),aerosol sample conditioner tube jacket temperature (°C),OPC LED temperature (°C),internal box temperature (°C),relative humidity of the measurement (%),span deviation,mass concentration of particles derived from Lorenz-Mie calculation of OPC scattering (μg/m³),mass concentration of particles derived from Lorenz-Mie calculation of OPC scattering (μg/m³),mass concentration of particles derived from Lorenz-Mie calculation of OPC scattering (μg/m³)
DateTimeUTC,F1_M11,P_M11,Q1_M11,Q2_M11,T1_M11,T2_M11,T3_M11,T4_M11,T5_M11,U1_M11,ZSPAN_M11,X0_M11,X2_M11,X1_M11
2023-08-05 21:00:00,SystemResetWarning,0833.2,5.00,000.00,029.9,027.8,000.0,038.3,031.2,32.3,-000.3,0015.68,0007.43,0006.57
2023-08-05 21:01:00,SystemResetWarning,0832.9,4.99,000.00,029.9,027.9,000.0,038.3,031.2,32.0,-000.3,0015.78,0007.46,0006.57
2023-08-05 21:02:00,SystemResetWarning,0832.8,4.99,000.00,029.9,026.6,000.0,038.2,031.0,31.6,-000.0,0015.88,0007.48,0006.57
2023-08-05 21:03:00,SystemResetWarning,0832.7,5.00,000.00,029.8,025.2,000.0,038.0,030.7,32.3,-000.3,0016.01,0007.51,0006.56
2023-08-05 21:04:00,SystemResetWarning,0832.7,5.01,000.00,029.8,024.9,000.0,038.0,030.5,32.8,0000.1,0015.94,0007.55,0006.55
2023-08-05 21:05:00,SystemResetWarning,0832.7,5.01,000.00,029.6,025.2,000.0,038.0,030.3,32.9,0000.4,0015.05,0007.57,0006.56
2023-08-05 21:06:00,SystemResetWarning,0832.8,5.00,000.00,029.5,025.6,000.0,038.0,030.5,32.3,0000.3,0014.94,0007.56,0006.54
2023-08-05 21:07:00,SystemResetWarning,0832.7,5.00,000.00,029.5,026.0,000.0,038.0,030.6,32.6,0000.3,0015.20,0007.56,0006.52
2023-08-05 21:08:00,SystemResetWarning,0832.7,4.99,000.00,029.5,026.5,000.0,038.0,030.7,33.0,0000.7,0014.30,0007.53,0006.51
2023-08-05 21:09:00,SystemResetWarning,0832.7,5.00,000.00,029.5,026.8,000.0,038.0,030.8,32.4,0000.7,0014.62,0007.55,0006.52
2023-08-05 21:10:00,SystemResetWarning,0832.8,5.00,000.00,029.5,027.2,000.0,038.0,030.9,31.9,0001.3,0014.81,0007.49,0006.50
2023-08-05 21:11:00,SystemResetWarning,0832.8,5.00,000.00,029.6,027.5,000.0,038.0,031.0,32.3,0001.5,0014.60,0007.40,0006.48
2023-08-05 21:12:00,SystemResetWarning,0832.8,5.00,000.00,029.6,027.7,000.0,038.0,031.1,31.8,0001.9,0014.19,0007.30,0006.43
2023-08-05 21:13:00,SystemResetWarning,0832.7,5.00,000.00,029.6,027.9,000.0,038.0,031.1,32.4,0002.3,0013.98,0007.19,0006.39
2023-08-05 21:14:00,SystemResetWarning,0832.7,5.00,000.00,029.7,027.8,000.0,038.0,031.1,32.5,0002.8,0013.92,0007.10,0006.34
2023-08-05 21:15:00,SystemResetWarning,0832.7,5.00,000.00,029.7,026.3,000.0,037.9,030.9,32.4,0002.8,0014.58,0007.02,0006.30
2023-08-05 21:16:00,SystemResetWarning,0832.7,5.01,000.00,029.6,025.2,000.0,037.8,030.7,33.2,0002.5,0014.55,0006.93,0006.24
2023-08-05 21:17:00,SystemResetWarning,0832.6,5.00,000.00,029.5,025.0,000.0,037.7,030.5,33.8,0002.5,0015.40,0006.93,0006.21
2023-08-05 21:18:00,SystemResetWarning,0832.6,5.01,000.00,029.4,025.3,000.0,037.8,030.4,33.6,0002.6,0015.64,0006.88,0006.17
2023-08-05 21:19:00,SystemResetWarning,0832.6,5.00,000.00,029.3,025.7,000.0,037.8,030.5,33.8,0002.8,0015.60,0006.87,0006.13
2023-08-05 21:20:00,SystemResetWarning,0832.6,5.00,000.00,029.3,026.2,000.0,037.8,030.6,33.5,0002.7,0015.46,0006.87,0006.12
2023-08-05 21:21:00,SystemResetWarning,0832.6,5.01,000.00,029.3,026.6,000.0,037.8,030.7,33.0,0002.6,0015.03,0006.84,0006.10
2023-08-05 21:22:00,SystemResetWarning,0832.6,4.98,000.00,029.4,027.0,000.0,037.8,030.8,33.8,0002.3,0014.27,0006.82,0006.07
2023-08-05 21:23:00,SystemResetWarning,0832.6,4.99,000.00,029.4,027.3,000.0,037.8,030.9,33.5,0001.7,0014.37,0006.80,0006.04
2023-08-05 21:24:00,SystemResetWarning,0832.6,5.00,000.00,029.4,027.5,000.0,037.8,031.0,33.9,0001.3,0014.63,0006.84,0006.02
2023-08-05 21:25:00,SystemResetWarning,0832.5,5.00,000.00,029.5,027.8,000.0,037.9,031.0,34.5,0000.7,0014.78,0006.88,0006.01
2023-08-05 21:26:00,SystemResetWarning,0832.5,5.01,000.00,029.5,027.9,000.0,037.9,031.1,34.5,0000.7,0014.78,0006.85,0006.00
2023-08-05 21:27:00,SystemResetWarning,0832.5,4.99,000.00,029.5,026.8,000.0,037.8,030.9,34.2,0000.5,0014.88,0006.85,0005.99
2023-08-05 21:28:00,SystemResetWarning,0832.5,5.00,000.00,029.4,025.4,000.0,037.6,030.7,34.7,0000.3,0014.59,0006.82,0006.00
2023-08-05 21:29:00,SystemResetWarning,0832.4,5.02,000.00,029.4,025.0,000.0,037.6,030.6,35.1,0000.1,0014.13,0006.82,0006.00
2023-08-05 21:30:00,SystemResetWarning,0832.4,4.99,000.00,029.5,025.3,000.0,037.6,030.5,33.9,-000.3,0013.81,0006.76,0005.99
2023-08-05 21:31:00,SystemResetWarning,0832.4,4.99,000.00,029.5,025.7,000.0,037.6,030.6,32.7,-000.9,0013.36,0006.71,0005.96
2023-08-05 21:32:00,SystemResetWarning,0832.5,5.01,000.00,029.6,026.1,000.0,037.7,030.7,31.9,-001.6,0013.31,0006.67,0005.92
2023-08-05 21:33:00,SystemResetWarning,0832.5,4.99,000.00,029.6,026.6,000.0,037.7,030.8,32.0,-001.2,0013.31,0006.65,0005.92
2023-08-05 21:34:00,SystemResetWarning,0832.6,5.00,000.00,029.7,026.9,000.0,037.8,030.9,31.9,-000.9,0013.50,0006.63,0005.91
2023-08-05 21:35:00,SystemResetWarning,0832.5,5.01,000.00,029.7,027.3,000.0,037.8,031.0,32.2,-001.4,0013.91,0006.62,0005.90
2023-08-05 21:36:00,SystemResetWarning,0832.5,5.01,000.00,029.8,027.5,000.0,037.9,031.0,32.8,-001.7,0013.76,0006.61,0005.93
2023-08-05 21:37:00,SystemResetWarning,0832.5,5.01,000.00,029.8,027.8,000.0,037.9,031.1,32.5,-001.5,0012.96,0006.62,0005.94
2023-08-05 21:38:00,SystemResetWarning,0832.5,5.00,000.00,029.9,027.7,000.0,037.9,031.1,31.9,-001.1,0012.79,0006.64,0005.95
2023-08-05 21:39:00,SystemResetWarning,0832.4,4.99,000.00,029.9,026.3,000.0,037.8,030.9,31.8,-000.7,0012.05,0006.66,0005.97
2023-08-05 21:40:00,SystemResetWarning,0832.4,5.01,000.00,029.8,025.1,000.0,037.7,030.6,32.7,-000.8,0012.14,0006.69,0006.00
2023-08-05 21:41:00,SystemResetWarning,0832.3,5.01,000.00,029.7,025.0,000.0,037.7,030.5,33.0,-000.1,0012.13,0006.75,0006.03
2023-08-05 21:42:00,SystemResetWarning,0832.3,4.99,000.00,029.6,025.3,000.0,037.7,030.4,33.1,-000.4,0012.26,0006.77,0006.05
2023-08-05 21:43:00,SystemResetWarning,0832.3,5.00,000.00,029.5,025.7,000.0,037.8,030.5,33.2,0000.0,0012.29,0006.78,0006.07
2023-08-05 21:44:00,SystemResetWarning,0832.3,5.00,000.00,029.5,026.2,000.0,037.8,030.6,33.6,0000.0,0012.51,0006.82,0006.09
2023-08-05 21:45:00,SystemResetWarning,0832.3,5.00,000.00,029.5,026.6,000.0,037.8,030.8,33.3,0000.2,0012.41,0006.90,0006.13
2023-08-05 21:46:00,SystemResetWarning,0832.3,5.00,000.00,029.6,027.0,000.0,037.9,030.9,33.3,0000.2,0011.97,0006.87,0006.15
2023-08-05 21:47:00,SystemResetWarning,0832.3,5.00,000.00,029.6,027.3,000.0,037.9,031.0,33.2,0000.0,0012.19,0006.91,0006.17
2023-08-05 21:48:00,SystemResetWarning,0832.4,5.00,000.00,029.6,027.6,000.0,037.9,031.0,32.5,0000.5,0012.43,0006.96,0006.18
2023-08-05 21:49:00,SystemResetWarning,0832.4,5.00,000.00,029.7,027.9,000.0,037.9,031.1,31.7,-000.0,0012.29,0006.96,0006.18
2023-08-05 21:50:00,SystemResetWarning,0832.5,4.99,000.00,029.7,027.5,000.0,037.9,031.1,32.4,-000.1,0012.54,0006.95,0006.15
2023-08-05 21:51:00,SystemResetWarning,0832.5,4.99,000.00,029.7,025.9,000.0,037.8,030.8,32.1,0000.0,0012.07,0006.93,0006.13
2023-08-05 21:52:00,SystemResetWarning,0832.5,5.00,000.00,029.6,025.1,000.0,037.7,030.6,32.2,0000.0,0012.73,0006.92,0006.11
2023-08-05 21:53:00,SystemResetWarning,0832.5,5.01,000.00,029.5,025.1,000.0,037.7,030.4,33.3,0000.0,0012.65,0006.86,0006.08
2023-08-05 21:54:00,SystemResetWarning,0832.5,5.00,000.00,029.4,025.5,000.0,037.7,030.3,32.6,0000.0,0013.07,0006.86,0006.06
2023-08-05 21:55:00,SystemResetWarning,0832.6,5.01,000.00,029.3,025.9,000.0,037.7,030.5,32.9,0000.0,0013.50,0006.84,0006.02
2023-08-05 21:56:00,SystemResetWarning,0832.5,4.99,000.00,029.3,026.4,000.0,037.7,030.7,33.4,0000.0,0013.34,0006.75,0005.95
2023-08-05 21:57:00,SystemResetWarning,0832.6,5.00,000.00,029.4,026.8,000.0,037.7,030.7,33.3,0000.0,0013.37,0006.73,0005.90
2023-08-05 21:58:00,SystemResetWarning,0832.6,5.00,000.00,029.4,027.1,000.0,037.8,030.8,33.4,0000.0,0013.30,0006.62,0005.82
2023-08-05 21:59:00,SystemResetWarning,0832.7,5.00,000.00,029.4,027.4,000.0,037.8,030.9,33.5,0000.0,0013.07,0006.52,0005.75
